Moses Lake, WA
on Tuesday, January 1, 2013

Tuesday
Previous Day Next Day
Daily Summary
 ActualAverageRecord
Temperature
Mean Temperature °F 28°F  
Max Temperature 30°F 34°F 54°F (1999)
Min Temperature 26°F 22°F -3°F (1985)
Degree Days
Heating Degree Days 37 37  
Month to date heating degree days 37 37  
Since 1 July heating degree days 2245 2624  
Cooling Degree Days 0 0  
Month to date cooling degree days 0 0  
Year to date cooling degree days 0 0  
Moisture
Dew Point 20°F   
Average Humidity 75    
Maximum Humidity 81    
Minimum Humidity 69    
Precipitation
Precipitation 0.00 in 0.05 in 0.31 in (2003)
Month to date precipitation 0.00 0.05  
Year to date precipitation 0.00 0.05  
Wind
Wind Speed 3 mph   
Max Wind Speed 10 mph   
Max Gust Speed 12 mph   
Visibility 10 miles   
Events     

Key: T is trace of precipitation, MM is missing value
Source: NWS Daily Summary
Time(PST)TemperatureDew PointHumidity Pressure Visibility Wind DirectionWind SpeedGust SpeedPrecipitationEvents Conditions
12:21 AM 28.4°F 21.2°F 74% 30.49 in 10.0 miles NNW 9.2 mph - N/A   Unknown
12:52 AM 28.0°F 21.0°F 75% 30.53 in 10.0 miles Calm Calm - N/A   Unknown
1:20 AM 28.4°F 21.2°F 74% 30.49 in 10.0 miles WNW 5.8 mph - N/A   Overcast
1:36 AM 28.4°F 21.2°F 74% 30.50 in 10.0 miles WNW 8.1 mph - N/A   Unknown
1:52 AM 28.0°F 19.9°F 72% 30.56 in 10.0 miles WNW 6.9 mph - N/A   Unknown
2:06 AM 28.4°F 19.4°F 69% 30.51 in 10.0 miles WNW 6.9 mph - N/A   Overcast
2:52 AM 28.0°F 21.0°F 75% 30.57 in 10.0 miles NW 5.8 mph - N/A   Overcast
3:52 AM 28.0°F 21.0°F 75% 30.58 in 10.0 miles NW 6.9 mph - N/A   Overcast
4:13 AM 26.6°F 21.2°F 80% 30.53 in 10.0 miles NW 5.8 mph - N/A   Unknown
4:52 AM 27.0°F 19.9°F 75% 30.59 in 10.0 miles NNW 6.9 mph - N/A   Unknown
5:10 AM 28.4°F 19.4°F 69% 30.54 in 10.0 miles NW 3.5 mph - N/A   Overcast
5:52 AM 28.0°F 21.0°F 75% 30.59 in 10.0 miles Calm Calm - N/A   Overcast
6:06 AM 26.6°F 19.4°F 74% 30.55 in 10.0 miles Calm Calm - N/A   Unknown
6:36 AM 26.6°F 19.4°F 74% 30.55 in 10.0 miles Calm Calm - N/A   Overcast
6:52 AM 26.6°F 21.2°F 80% 30.55 in 10.0 miles Calm Calm - N/A   Overcast
7:34 AM 26.6°F 19.4°F 74% 30.56 in 10.0 miles NW 4.6 mph - N/A   Unknown
7:52 AM 27.0°F 19.9°F 75% 30.61 in 10.0 miles NW 3.5 mph - N/A   Unknown
8:22 AM 28.4°F 21.2°F 74% 30.57 in 10.0 miles Calm Calm - N/A   Overcast
8:52 AM 27.0°F 19.9°F 75% 30.63 in 10.0 miles West 3.5 mph - N/A   Overcast
9:52 AM 28.0°F 19.9°F 72% 30.67 in 10.0 miles North 4.6 mph - N/A   Overcast
10:52 AM 28.0°F 19.0°F 69% 30.66 in 10.0 miles Calm Calm - N/A   Overcast
11:52 AM 28.0°F 19.0°F 69% 30.64 in 10.0 miles Calm Calm - N/A   Overcast
12:52 PM 28.9°F 19.0°F 67% 30.63 in 10.0 miles Calm Calm - N/A   Overcast
1:52 PM 28.9°F 19.0°F 67% 30.65 in 10.0 miles South 3.5 mph - N/A   Overcast
2:52 PM 28.0°F 19.0°F 69% 30.65 in 10.0 miles South 4.6 mph - N/A   Overcast
3:52 PM 28.0°F 19.9°F 72% 30.66 in 10.0 miles WNW 4.6 mph - N/A   Overcast
4:52 PM 27.0°F 19.9°F 75% 30.66 in 10.0 miles Calm Calm - N/A   Overcast
5:52 PM 27.0°F 19.9°F 75% 30.66 in 10.0 miles NW 3.5 mph - N/A   Overcast
6:52 PM 27.0°F 19.9°F 75% 30.66 in 10.0 miles WNW 4.6 mph - N/A   Overcast
7:52 PM 27.0°F 21.0°F 78% 30.66 in 10.0 miles Calm Calm - N/A   Overcast
8:52 PM 27.0°F 21.0°F 78% 30.66 in 10.0 miles North 8.1 mph - N/A   Overcast
9:52 PM 27.0°F 21.0°F 78% 30.67 in 10.0 miles North 4.6 mph - N/A   Overcast
10:52 PM 27.0°F 21.0°F 78% 30.68 in 10.0 miles NNW 4.6 mph - N/A   Overcast
11:52 PM 27.0°F 21.0°F 78% 30.67 in 10.0 miles North 5.8 mph - N/A   Overcast
Moon Phase
Jan. 01 Jan. 04 Jan. 11 Jan. 18 Jan. 26
Sunrise:07:43 AM (PST) Moon Rise:09:14 PM (PST)1/1
Sunset:04:18 PM (PST) Moon Set:09:40 AM (PST)1/1

Copyright © 2014 The Weather Underground, Inc.